Simultaneous Nadir Overpasses (SNOs) Predictions

Prediction of SNOs between NOAA-20 and LANDSAT-9 Satellite Orbit:

Table of predicted SNOs for the next 14.0 days since TLE Epoch: 7/27/2024
Index Date (NOAA-20) Time (NOAA-20) Lat,Lon (NOAA-20) SZA (NOAA-20 ) Date (LANDSAT-9) Time (LANDSAT-9) Lat,Lon (LANDSAT-9) SZA (LANDSAT-9 ) Distance(km) Time Diff (sec)
1 07/28/2024 22:36:11 70.15,-162.92 51.46 07/28/2024 22:37:14 70.13,-162.91 51.43 1.63 63
2 07/28/2024 23:26:52 -70.02, 4.59 128.67 07/28/2024 23:26:44 -70.02, 4.57 128.67 1.13 8
3 07/29/2024 00:17:28 69.46, 172.72 50.76 07/29/2024 00:16:18 69.53, 171.53 50.88 47.02 70
4 07/31/2024 14:53:05 70.09, -47.06 52.05 07/31/2024 14:53:46 70.08, -47.11 52.04 1.81 41
5 07/31/2024 15:43:47 -70.01, 120.38 128.03 07/31/2024 15:43:16 -69.98, 120.38 128.06 3.42 31
6 08/03/2024 06:19:29 -70.94, -99.97 126.37 08/03/2024 06:20:36 -70.87, -97.70 126.53 82.94 67
7 08/03/2024 07:09:58 70.04, 68.78 52.68 08/03/2024 07:10:16 70.05, 68.73 52.70 2.55 18
8 08/03/2024 08:00:40 -69.95,-123.77 127.40 08/03/2024 07:59:46 -69.95,-123.78 127.39 0.29 54
9 08/05/2024 22:36:09 -70.16, 17.05 126.48 08/05/2024 22:37:19 -70.16, 17.12 126.50 2.68 70
10 08/05/2024 23:26:53 70.05,-175.47 53.42 08/05/2024 23:26:46 70.04,-175.40 53.41 2.77 7
11 08/06/2024 00:17:31 -69.75, -7.70 126.90 08/06/2024 00:16:18 -69.84, -8.06 126.78 17.09 73
12 08/08/2024 14:53:03 -70.12, 132.87 125.77 08/08/2024 14:53:49 -70.12, 132.95 125.78 2.76 46
13 08/08/2024 15:43:47 70.02, -59.66 54.13 08/08/2024 15:43:16 70.00, -59.58 54.12 3.42 31



Historial Predications of SNOs between NOAA-20 and LANDSAT-9
